SCP
1 0 0 0 0 -0 0 0 -0 0 0 -0 0 0 0 0 0 0 0 0 0 0 0 0 0 0 0 0 0 0 0 0
0 0 0 0 0 0 -0 -0 -0 -0 0 0 0 0 0 0 0 0 0 0 0 0 0 0 0 0 0 0 0 0 0 0
0 0 0 0 0 -0 -0 0 -0 0 0 0 0 0 0 0 0 0 0 0 0 0 0 0 0 0 0 0 0 0 0 -0
0 0 0 0 0 0 -0 0 -0 0 0 0 0 0 0 0 0 0 0 0 0 0 0 0 0 0 0 0 0 0 -0 -0
0 0 0 0 0 0 0 0 0 0 0 0 0 0 0 0 0 0 0 0 0 0 0 0 0 0 0 0 0 -0 0 0
0 0 0 0 0 0 0 0 0 0 0 0 0 0 0 0 0 0 0 0 0 0 0 0 0 0 0 0 -0 -0 0 0
0 0 0 0 0 0 0 0 0 0 0 0 0 0 0 0 0 0 0 0 0 0 0 0 0 0 0 -0 -0 -0 -0 0
0 0 0 0 0 0 0 0 0 0 0 0 0 0 0 0 0 0 0 0 0 0 0 0 0 0 -0 -0 -0 0 0 0
0 0 0 0 0 0 0 0 0 0 0 0 0 0 0 0 0 0 0 0 0 0 0 0 0 0 -0 -0 -0 0 0 0
0 0 0 0 0 0 0 0 0 0 0 0 0 0 0 0 0 0 0 0 0 0 0 0 0 0 0 -0 0 0 0 0
0 0 0 0 0 0 0 0 0 0 0 0 0 0 0 0 0 0 0 0 0 0 0 0 0 0 0 0 0 0 0 0
0 0 0 0 0 0 0 0 0 0 0 0 0 0 -0 0 0 0 0 0 0 0 0 0 0 0 0 0 0 0 0 0
0 0 0 0 0 0 0 0 0 0 0 0 0 0 0 0 0 0 0 0 0 0 0 0 0 0 0 0 0 0 0 0
-0 -0 -0 0 -0 -0 -0 -0 -0 -0 -0 0 0 0 0 0 0 0 0 0 0 0 0 0 0 0 0 0 0 0 0 0
0 0 0 0 0 0 0 0 0 0 0 0 0 0 0 0 0 0 0 0 0 0 0 0 0 0 0 0 0 0 0 0
-0 0 0 0 0 0 0 0 0 0 0 0 0 0 0 0 0 0 0 0 0 0 0 0 0 0 0 0 0 0 0 0
0 -0 0 0 0 0 0 0 0 0 0 0 0 0 0 0 0 0 0 0 0 0 0 0 0 0 0 0 0 0 0 0
0 0 0 0 0 0 0 0 0 0 0 0 0 0 0 -0 0 0 0 0 0 0 0 0 -0 0 0 0 0 0 0 0
0 0 0 0 0 0 0 0 0 0 0 0 0 0 0 0 0 0 0 0 0 0 0 0 0 0 0 0 0 0 0 0
0 0 0 0 0 0 0 0 0 0 0 0 0 0 0 0 0 0 0 0 0 0 0 0 0 0 0 0 0 0 0 0
Wind_Speed_500mb
47 46 46 33 49 58 14 7 20 27 32 32 30 28 25 23 21 16 17 16 13 16 11 8 8 11 14 22 33 43 49 53
41 38 21 22 39 70 28 20 23 31 34 33 30 30 28 19 19 18 19 24 21 16 18 18 16 15 21 30 41 47 53 57
39 30 35 52 57 86 50 16 31 44 42 37 34 32 30 29 25 26 28 27 22 22 25 27 27 24 27 41 43 49 56 67
45 42 63 50 52 69 40 51 44 43 40 30 29 38 42 37 31 24 21 22 23 23 27 19 22 32 37 32 38 51 58 62
20 44 39 45 51 56 28 40 43 41 47 46 44 45 31 12 14 28 34 35 30 27 20 28 30 24 29 35 48 54 55 46
34 50 49 51 53 38 46 35 38 36 31 23 15 8 1 2 7 14 21 23 23 27 33 32 26 31 36 45 53 51 42 27
27 37 42 53 13 16 34 32 25 21 3 4 4 7 7 11 18 20 26 30 33 34 35 29 33 36 44 46 47 40 28 26
24 19 16 6 2 6 14 22 23 25 21 23 25 23 23 26 31 33 31 30 30 35 37 35 33 41 43 47 41 28 22 25
36 34 30 23 17 8 9 8 14 15 22 25 24 21 32 25 22 26 28 32 40 39 39 28 35 38 41 43 33 23 19 26
31 19 15 13 8 6 4 4 9 14 14 13 22 24 27 31 35 36 37 34 33 37 32 34 37 33 37 38 25 18 17 21
23 18 14 7 8 2 6 4 10 12 17 16 23 33 30 37 40 43 43 45 40 37 42 37 32 28 32 32 22 18 17 13
23 15 11 6 8 14 18 17 18 21 20 26 24 42 46 44 42 43 51 39 42 33 31 27 27 23 26 23 19 17 15 15
20 15 15 21 19 27 25 30 34 32 33 30 30 30 27 30 36 41 38 31 31 30 27 27 23 18 22 23 19 19 15 15
24 23 19 21 23 24 26 29 29 31 32 31 32 34 29 31 36 39 39 35 33 22 25 29 28 24 19 21 22 18 15 14
15 21 19 17 25 23 26 22 30 33 41 28 26 27 31 31 31 30 28 29 26 23 24 29 30 25 23 25 22 18 15 13
13 25 19 18 16 16 14 21 30 32 31 28 26 29 34 35 33 35 33 31 34 32 36 30 31 28 30 31 28 22 13 12
6 10 11 15 13 12 20 32 27 27 30 31 33 35 40 46 36 37 30 28 32 35 32 33 32 29 33 31 26 11 9 12
8 12 12 13 21 27 29 26 29 31 33 34 32 37 40 42 25 22 23 24 25 22 27 25 24 24 21 19 10 8 6 6
9 10 9 20 20 21 26 31 34 31 32 33 32 41 39 34 25 25 22 21 21 19 21 19 18 13 18 4 3 6 1 2
7 11 21 22 22 29 26 35 34 36 37 34 38 40 36 34 25 25 19 18 18 22 16 15 9 9 15 8 6 5 6 12
Wind_Direction_500mb
138 98 85 63 79 109 176 105 159 159 164 156 158 160 164 171 184 196 188 178 175 148 177 222 263 286 297 301 307 316 326 333
165 144 133 105 125 127 138 114 162 181 179 164 158 163 171 180 200 190 190 191 201 223 262 267 260 272 287 307 317 320 325 328
134 137 139 137 121 139 140 150 199 190 180 170 173 176 178 187 203 209 220 235 245 264 268 261 259 280 295 308 311 314 326 325
112 110 134 125 127 143 140 190 198 186 193 191 179 174 181 200 210 225 245 263 278 267 267 269 289 299 298 310 319 326 327 324
124 134 128 134 140 164 177 188 194 183 173 159 157 161 173 194 271 284 284 281 267 265 274 301 304 310 319 325 327 326 324 329
128 140 140 149 150 169 170 175 166 161 152 142 138 149 132 297 262 260 262 258 277 295 312 314 315 320 332 334 331 332 333 337
115 141 142 143 138 163 193 211 211 186 219 288 341 56 31 348 324 304 309 305 304 304 313 324 327 330 334 337 342 339 347 353
82 117 143 137 252 181 195 218 234 245 252 275 279 279 314 314 308 303 298 315 317 310 310 314 320 329 332 342 341 343 349 349
69 89 102 107 109 119 138 186 239 275 289 288 281 290 319 327 313 319 318 321 314 310 316 312 314 327 330 340 341 341 356 353
89 82 85 78 71 72 84 298 287 279 290 342 342 338 341 322 314 313 325 316 303 310 303 321 321 318 327 332 324 329 355 7
100 110 104 126 135 216 245 357 22 9 354 342 356 337 337 339 336 331 327 317 309 303 300 299 305 306 316 323 310 308 331 5
119 119 100 107 73 44 30 22 24 14 355 342 330 313 306 303 308 311 312 303 296 302 294 293 290 302 311 308 303 307 320 329
106 89 58 46 27 6 8 17 13 6 0 359 5 350 342 336 321 315 321 312 308 317 319 319 300 303 325 312 299 297 297 306
74 53 47 32 24 20 17 13 10 7 359 351 345 335 333 324 321 319 319 318 319 313 316 309 302 309 321 313 297 296 299 301
75 36 23 13 10 7 10 357 354 351 341 340 341 342 330 330 334 329 325 323 322 313 312 291 291 300 312 306 297 297 287 287
41 4 358 20 4 344 346 351 352 0 360 4 356 337 341 332 321 320 318 316 324 303 296 308 303 289 290 288 288 287 270 269
321 341 16 347 342 13 358 347 356 354 0 355 352 348 342 335 317 327 314 324 310 305 306 297 277 289 286 278 279 267 254 266
343 32 358 25 11 358 359 10 1 358 356 353 353 349 348 359 341 326 353 346 351 340 340 344 356 263 289 273 225 200 246 212
25 348 26 2 14 18 358 353 348 348 352 350 351 345 344 343 346 346 336 348 339 342 344 336 347 343 313 216 110 139 177 280
20 35 8 21 8 351 346 347 351 352 354 353 356 352 348 351 346 341 328 330 321 325 348 356 357 10 7 140 99 255 300 314
Wind_Speed_850mb
47 46 46 33 49 58 14 7 20 27 32 32 30 28 25 23 21 16 17 16 13 16 11 8 8 11 14 22 33 43 49 53
41 38 21 22 39 70 28 20 23 31 34 33 30 30 28 19 19 18 19 24 21 16 18 18 16 15 21 30 41 47 53 57
39 30 35 52 57 86 50 16 31 44 42 37 34 32 30 29 25 26 28 27 22 22 25 27 27 24 27 41 43 49 56 67
45 42 63 50 52 69 40 51 44 43 40 30 29 38 42 37 31 24 21 22 23 23 27 19 22 32 37 32 38 51 58 62
20 44 39 45 51 56 28 40 43 41 47 46 44 45 31 12 14 28 34 35 30 27 20 28 30 24 29 35 48 54 55 46
34 50 49 51 53 38 46 35 38 36 31 23 15 8 1 2 7 14 21 23 23 27 33 32 26 31 36 45 53 51 42 27
27 37 42 53 13 16 34 32 25 21 3 4 4 7 7 11 18 20 26 30 33 34 35 29 33 36 44 46 47 40 28 26
24 19 16 6 2 6 14 22 23 25 21 23 25 23 23 26 31 33 31 30 30 35 37 35 33 41 43 47 41 28 22 25
36 34 30 23 17 8 9 8 14 15 22 25 24 21 32 25 22 26 28 32 40 39 39 28 35 38 41 43 33 23 19 26
31 19 15 13 8 6 4 4 9 14 14 13 22 24 27 31 35 36 37 34 33 37 32 34 37 33 37 38 25 18 17 21
23 18 14 7 8 2 6 4 10 12 17 16 23 33 30 37 40 43 43 45 40 37 42 37 32 28 32 32 22 18 17 13
23 15 11 6 8 14 18 17 18 21 20 26 24 42 46 44 42 43 51 39 42 33 31 27 27 23 26 23 19 17 15 15
20 15 15 21 19 27 25 30 34 32 33 30 30 30 27 30 36 41 38 31 31 30 27 27 23 18 22 23 19 19 15 15
24 23 19 21 23 24 26 29 29 31 32 31 32 34 29 31 36 39 39 35 33 22 25 29 28 24 19 21 22 18 15 14
15 21 19 17 25 23 26 22 30 33 41 28 26 27 31 31 31 30 28 29 26 23 24 29 30 25 23 25 22 18 15 13
13 25 19 18 16 16 14 21 30 32 31 28 26 29 34 35 33 35 33 31 34 32 36 30 31 28 30 31 28 22 13 12
6 10 11 15 13 12 20 32 27 27 30 31 33 35 40 46 36 37 30 28 32 35 32 33 32 29 33 31 26 11 9 12
8 12 12 13 21 27 29 26 29 31 33 34 32 37 40 42 25 22 23 24 25 22 27 25 24 24 21 19 10 8 6 6
9 10 9 20 20 21 26 31 34 31 32 33 32 41 39 34 25 25 22 21 21 19 21 19 18 13 18 4 3 6 1 2
7 11 21 22 22 29 26 35 34 36 37 34 38 40 36 34 25 25 19 18 18 22 16 15 9 9 15 8 6 5 6 12
Wind_Direction_850mb
138 98 85 63 79 109 176 105 159 159 164 156 158 160 164 171 184 196 188 178 175 148 177 222 263 286 297 301 307 316 326 333
165 144 133 105 125 127 138 114 162 181 179 164 158 163 171 180 200 190 190 191 201 223 262 267 260 272 287 307 317 320 325 328
134 137 139 137 121 139 140 150 199 190 180 170 173 176 178 187 203 209 220 235 245 264 268 261 259 280 295 308 311 314 326 325
112 110 134 125 127 143 140 190 198 186 193 191 179 174 181 200 210 225 245 263 278 267 267 269 289 299 298 310 319 326 327 324
124 134 128 134 140 164 177 188 194 183 173 159 157 161 173 194 271 284 284 281 267 265 274 301 304 310 319 325 327 326 324 329
128 140 140 149 150 169 170 175 166 161 152 142 138 149 132 297 262 260 262 258 277 295 312 314 315 320 332 334 331 332 333 337
115 141 142 143 138 163 193 211 211 186 219 288 341 56 31 348 324 304 309 305 304 304 313 324 327 330 334 337 342 339 347 353
82 117 143 137 252 181 195 218 234 245 252 275 279 279 314 314 308 303 298 315 317 310 310 314 320 329 332 342 341 343 349 349
69 89 102 107 109 119 138 186 239 275 289 288 281 290 319 327 313 319 318 321 314 310 316 312 314 327 330 340 341 341 356 353
89 82 85 78 71 72 84 298 287 279 290 342 342 338 341 322 314 313 325 316 303 310 303 321 321 318 327 332 324 329 355 7
100 110 104 126 135 216 245 357 22 9 354 342 356 337 337 339 336 331 327 317 309 303 300 299 305 306 316 323 310 308 331 5
119 119 100 107 73 44 30 22 24 14 355 342 330 313 306 303 308 311 312 303 296 302 294 293 290 302 311 308 303 307 320 329
106 89 58 46 27 6 8 17 13 6 0 359 5 350 342 336 321 315 321 312 308 317 319 319 300 303 325 312 299 297 297 306
74 53 47 32 24 20 17 13 10 7 359 351 345 335 333 324 321 319 319 318 319 313 316 309 302 309 321 313 297 296 299 301
75 36 23 13 10 7 10 357 354 351 341 340 341 342 330 330 334 329 325 323 322 313 312 291 291 300 312 306 297 297 287 287
41 4 358 20 4 344 346 351 352 0 360 4 356 337 341 332 321 320 318 316 324 303 296 308 303 289 290 288 288 287 270 269
321 341 16 347 342 13 358 347 356 354 0 355 352 348 342 335 317 327 314 324 310 305 306 297 277 289 286 278 279 267 254 266
343 32 358 25 11 358 359 10 1 358 356 353 353 349 348 359 341 326 353 346 351 340 340 344 356 263 289 273 225 200 246 212
25 348 26 2 14 18 358 353 348 348 352 350 351 345 344 343 346 346 336 348 339 342 344 336 347 343 313 216 110 139 177 280
20 35 8 21 8 351 346 347 351 352 354 353 356 352 348 351 346 341 328 330 321 325 348 356 357 10 7 140 99 255 300 314